{"data":{"norad_id":68456,"epoch":"2026-09-20T02:42:48.009888Z","epoch_age_seconds":103101,"freshness":"FRESH","line1":"1 68456U 26067AS  26263.11305567  .00003990  00000+0  19734-3 0  9994","line2":"2 68456  97.4658 220.1269 0007477  92.9710 267.2380 15.18370521 26330","mean_motion":15.18370521,"eccentricity":0.0007477,"inclination_deg":97.4658,"raan_deg":220.1269,"arg_perigee_deg":92.971,"mean_anomaly_deg":267.238,"bstar":0.00019734,"rev_number":2633,"period_min":94.838511422865,"perigee_km":505.61404827185,"apogee_km":515.91571214351,"semimajor_km":6888.9018802077,"source":"CELESTRAK","updated_at":"2026-09-20T09:00:24.210194Z"}}